Time,TemperatureF,DewpointF,PressureIn,WindDirection,WindDirectionDegrees,WindSpeedMPH,WindSpeedGustMPH,Humidity,HourlyPrecipIn,Conditions,Clouds,dailyrainin,SoftwareType,DateUTC
2013-01-24 00:10:00,9.0,-3.2,30.12,WNW,285,2.0,2.0,57,0.00,,,0.00,Wunderground v.1.15,2013-01-24 05:10:00,
2013-01-24 00:20:00,8.5,-3.3,30.12,WSW,238,2.0,3.0,58,0.00,,,0.00,Wunderground v.1.15,2013-01-24 05:20:00,
2013-01-24 00:30:00,8.1,-3.3,30.12,WSW,256,2.0,2.0,59,0.00,,,0.00,Wunderground v.1.15,2013-01-24 05:30:00,
2013-01-24 00:40:00,7.6,-3.8,30.12,West,263,2.0,2.0,59,0.00,,,0.00,Wunderground v.1.15,2013-01-24 05:40:00,
2013-01-24 00:50:00,7.3,-4.0,30.12,West,281,2.0,2.0,59,0.00,,,0.00,Wunderground v.1.15,2013-01-24 05:50:00,
2013-01-24 01:00:00,7.3,-4.0,30.12,West,266,1.0,1.0,59,0.00,,,0.00,Wunderground v.1.15,2013-01-24 06:00:00,
2013-01-24 01:10:00,6.9,-4.4,30.12,West,271,2.0,2.0,59,0.00,,,0.00,Wunderground v.1.15,2013-01-24 06:10:00,
2013-01-24 01:20:00,6.7,-5.0,30.12,West,281,2.0,2.0,58,0.00,,,0.00,Wunderground v.1.15,2013-01-24 06:20:00,
2013-01-24 01:30:00,6.6,-5.1,30.12,West,272,2.0,2.0,58,0.00,,,0.00,Wunderground v.1.15,2013-01-24 06:30:00,
2013-01-24 01:40:00,6.3,-5.3,30.12,West,281,2.0,2.0,58,0.00,,,0.00,Wunderground v.1.15,2013-01-24 06:40:00,
2013-01-24 01:50:00,6.0,-5.3,30.12,WNW,295,1.0,2.0,59,0.00,,,0.00,Wunderground v.1.15,2013-01-24 06:50:00,
2013-01-24 02:00:00,5.9,-5.0,30.13,West,266,1.0,2.0,60,0.00,,,0.00,Wunderground v.1.15,2013-01-24 07:00:00,
2013-01-24 02:10:00,5.9,-5.0,30.13,SW,228,2.0,2.0,60,0.00,,,0.00,Wunderground v.1.15,2013-01-24 07:10:00,
2013-01-24 02:20:00,5.9,-5.0,30.13,West,281,2.0,2.0,60,0.00,,,0.00,Wunderground v.1.15,2013-01-24 07:20:00,
2013-01-24 02:30:00,6.0,-4.9,30.13,WSW,245,2.0,3.0,60,0.00,,,0.00,Wunderground v.1.15,2013-01-24 07:30:00,
2013-01-24 02:40:00,5.8,-4.8,30.12,West,278,2.0,2.0,61,0.00,,,0.00,Wunderground v.1.15,2013-01-24 07:40:00,
2013-01-24 02:50:00,5.8,-4.8,30.12,WSW,255,2.0,2.0,61,0.00,,,0.00,Wunderground v.1.15,2013-01-24 07:50:00,
2013-01-24 03:00:00,5.8,-4.8,30.11,SW,217,2.0,3.0,61,0.00,,,0.00,Wunderground v.1.15,2013-01-24 08:00:00,
2013-01-24 03:10:00,5.9,-4.3,30.11,West,278,1.0,2.0,62,0.00,,,0.00,Wunderground v.1.15,2013-01-24 08:10:00,
2013-01-24 03:20:00,6.5,-3.8,30.11,West,262,2.0,2.0,62,0.00,,,0.00,Wunderground v.1.15,2013-01-24 08:20:00,
2013-01-24 03:30:00,6.8,-3.5,30.11,West,276,2.0,2.0,62,0.00,,,0.00,Wunderground v.1.15,2013-01-24 08:30:00,
2013-01-24 03:40:00,6.7,-3.2,30.11,West,269,2.0,2.0,63,0.00,,,0.00,Wunderground v.1.15,2013-01-24 08:40:00,
2013-01-24 03:50:00,6.8,-2.8,30.10,West,267,2.0,2.0,64,0.00,,,0.00,Wunderground v.1.15,2013-01-24 08:50:00,
2013-01-24 04:00:00,7.0,-2.3,30.10,WNW,286,2.0,2.0,65,0.00,,,0.00,Wunderground v.1.15,2013-01-24 09:00:00,
2013-01-24 04:10:00,7.0,-2.0,30.09,WNW,294,2.0,2.0,66,0.00,,,0.00,Wunderground v.1.15,2013-01-24 09:10:00,
2013-01-24 04:20:00,7.3,-1.7,30.09,SSW,197,2.0,2.0,66,0.00,,,0.00,Wunderground v.1.15,2013-01-24 09:20:00,
2013-01-24 04:30:00,7.3,-1.7,30.09,West,264,2.0,2.0,66,0.00,,,0.00,Wunderground v.1.15,2013-01-24 09:30:00,
2013-01-24 04:40:00,7.3,-1.7,30.09,West,264,1.0,2.0,66,0.00,,,0.00,Wunderground v.1.15,2013-01-24 09:40:00,
2013-01-24 04:50:00,7.3,-1.7,30.09,West,281,2.0,3.0,66,0.00,,,0.00,Wunderground v.1.15,2013-01-24 09:50:00,
2013-01-24 05:00:00,7.6,-1.7,30.09,WNW,288,2.0,2.0,65,0.00,,,0.00,Wunderground v.1.15,2013-01-24 10:00:00,
2013-01-24 05:10:00,7.7,-1.6,30.09,WNW,288,2.0,2.0,65,0.00,,,0.00,Wunderground v.1.15,2013-01-24 10:10:00,
2013-01-24 05:20:00,7.6,-1.7,30.10,West,259,2.0,2.0,65,0.00,,,0.00,Wunderground v.1.15,2013-01-24 10:20:00,
2013-01-24 05:30:00,7.5,-2.1,30.10,West,268,2.0,2.0,64,0.00,,,0.00,Wunderground v.1.15,2013-01-24 10:30:00,
2013-01-24 05:40:00,7.2,-2.1,30.10,West,278,2.0,2.0,65,0.00,,,0.00,Wunderground v.1.15,2013-01-24 10:40:00,
2013-01-24 05:50:00,6.8,-1.8,30.10,West,271,1.0,2.0,67,0.00,,,0.00,Wunderground v.1.15,2013-01-24 10:50:00,
2013-01-24 06:00:00,6.7,-1.6,30.11,WSW,251,2.0,2.0,68,0.00,,,0.00,Wunderground v.1.15,2013-01-24 11:00:00,
2013-01-24 06:10:00,6.6,-1.7,30.10,West,281,2.0,2.0,68,0.00,,,0.00,Wunderground v.1.15,2013-01-24 11:10:00,
2013-01-24 06:20:00,6.5,-1.8,30.11,West,280,2.0,2.0,68,0.00,,,0.00,Wunderground v.1.15,2013-01-24 11:20:00,
2013-01-24 06:30:00,6.4,-1.6,30.10,West,266,2.0,2.0,69,0.00,,,0.00,Wunderground v.1.15,2013-01-24 11:30:00,
2013-01-24 06:40:00,6.3,-1.7,30.10,WNW,284,2.0,2.0,69,0.00,,,0.00,Wunderground v.1.15,2013-01-24 11:40:00,
2013-01-24 06:50:00,6.5,-1.2,30.11,WNW,284,2.0,2.0,70,0.00,,,0.00,Wunderground v.1.15,2013-01-24 11:50:00,
2013-01-24 07:00:00,6.7,-1.3,30.11,WNW,282,2.0,2.0,69,0.00,,,0.00,Wunderground v.1.15,2013-01-24 12:00:00,
2013-01-24 07:10:00,7.0,-1.0,30.11,WSW,245,2.0,2.0,69,0.00,,,0.00,Wunderground v.1.15,2013-01-24 12:10:00,
2013-01-24 07:20:00,7.2,-0.8,30.11,SW,222,2.0,2.0,69,0.00,,,0.00,Wunderground v.1.15,2013-01-24 12:20:00,
2013-01-24 07:30:00,7.7,-0.4,30.11,WNW,298,3.0,3.0,69,0.00,,,0.00,Wunderground v.1.15,2013-01-24 12:30:00,
2013-01-24 07:40:00,8.6,-0.1,30.11,West,264,3.0,3.0,67,0.00,,,0.00,Wunderground v.1.15,2013-01-24 12:40:00,
2013-01-24 07:50:00,9.2,0.5,30.11,WSW,242,2.0,2.0,67,0.00,,,0.00,Wunderground v.1.15,2013-01-24 12:50:00,
2013-01-24 08:00:00,9.6,0.5,30.11,West,268,3.0,3.0,66,0.00,,,0.00,Wunderground v.1.15,2013-01-24 13:00:00,
2013-01-24 08:10:00,10.0,0.9,30.11,West,273,3.0,3.0,66,0.00,,,0.00,Wunderground v.1.15,2013-01-24 13:10:00,
2013-01-24 08:20:00,10.4,1.3,30.11,West,277,3.0,5.0,66,0.00,,,0.00,Wunderground v.1.15,2013-01-24 13:20:00,
2013-01-24 08:30:00,10.9,2.1,30.11,WNW,284,3.0,3.0,67,0.00,,,0.00,Wunderground v.1.15,2013-01-24 13:30:00,
2013-01-24 08:40:00,11.1,1.9,30.11,WNW,284,3.0,3.0,66,0.00,,,0.00,Wunderground v.1.15,2013-01-24 13:40:00,
2013-01-24 08:50:00,11.4,2.6,30.11,East,79,3.0,3.0,67,0.00,,,0.00,Wunderground v.1.15,2013-01-24 13:50:00,
2013-01-24 09:00:00,11.8,2.6,30.11,NW,323,3.0,9.0,66,0.00,,,0.00,Wunderground v.1.15,2013-01-24 14:00:00,
2013-01-24 09:10:00,12.0,2.8,30.10,West,274,4.0,5.0,66,0.00,,,0.00,Wunderground v.1.15,2013-01-24 14:10:00,
2013-01-24 09:20:00,11.9,3.0,30.10,WNW,285,4.0,4.0,67,0.00,,,0.00,Wunderground v.1.15,2013-01-24 14:20:00,
2013-01-24 09:30:00,12.3,3.7,30.10,WNW,290,4.0,4.0,68,0.00,,,0.00,Wunderground v.1.15,2013-01-24 14:30:00,
2013-01-24 09:40:00,12.4,4.2,30.10,WNW,302,4.0,7.0,69,0.00,,,0.00,Wunderground v.1.15,2013-01-24 14:40:00,
2013-01-24 09:50:00,12.5,4.6,30.10,West,268,4.0,4.0,70,0.00,,,0.00,Wunderground v.1.15,2013-01-24 14:50:00,
2013-01-24 10:00:00,12.7,5.1,30.09,WSW,255,5.0,5.0,71,0.00,,,0.00,Wunderground v.1.15,2013-01-24 15:00:00,
2013-01-24 10:10:00,12.9,5.6,30.09,NNE,18,4.0,4.0,72,0.00,,,0.00,Wunderground v.1.15,2013-01-24 15:10:00,
2013-01-24 10:20:00,12.6,5.3,30.09,North,356,5.0,12.0,72,0.00,,,0.00,Wunderground v.1.15,2013-01-24 15:20:00,
2013-01-24 10:30:00,13.4,5.7,30.09,WNW,297,5.0,5.0,71,0.00,,,0.00,Wunderground v.1.15,2013-01-24 15:30:00,
2013-01-24 10:40:00,14.5,6.5,30.09,WNW,295,5.0,6.0,70,0.00,,,0.00,Wunderground v.1.15,2013-01-24 15:40:00,
2013-01-24 10:50:00,14.7,6.7,30.08,NW,319,4.0,4.0,70,0.00,,,0.00,Wunderground v.1.15,2013-01-24 15:50:00,
2013-01-24 11:00:00,14.8,6.1,30.08,NW,309,5.0,5.0,68,0.00,,,0.00,Wunderground v.1.15,2013-01-24 16:00:00,
2013-01-24 11:10:00,14.8,6.1,30.08,South,188,5.0,8.0,68,0.00,,,0.00,Wunderground v.1.15,2013-01-24 16:10:00,
2013-01-24 11:20:00,15.2,6.5,30.07,NNW,329,5.0,6.0,68,0.00,,,0.00,Wunderground v.1.15,2013-01-24 16:20:00,
2013-01-24 11:30:00,15.3,6.3,30.07,West,264,5.0,5.0,67,0.00,,,0.00,Wunderground v.1.15,2013-01-24 16:30:00,
2013-01-24 11:40:00,15.8,6.8,30.06,NW,317,5.0,7.0,67,0.00,,,0.00,Wunderground v.1.15,2013-01-24 16:40:00,
2013-01-24 11:50:00,15.7,6.0,30.06,WSW,246,6.0,6.0,65,0.00,,,0.00,Wunderground v.1.15,2013-01-24 16:50:00,
2013-01-24 12:00:00,16.7,7.0,30.06,West,272,3.0,3.0,65,0.00,,,0.00,Wunderground v.1.15,2013-01-24 17:00:00,
2013-01-24 12:10:00,16.6,5.5,30.05,NW,321,5.0,11.0,61,0.00,,,0.00,Wunderground v.1.15,2013-01-24 17:10:00,
2013-01-24 12:20:00,16.7,4.8,30.05,NNE,23,5.0,6.0,59,0.00,,,0.00,Wunderground v.1.15,2013-01-24 17:20:00,
2013-01-24 12:30:00,17.0,4.7,30.05,WSW,250,5.0,5.0,58,0.00,,,0.00,Wunderground v.1.15,2013-01-24 17:30:00,
2013-01-24 12:40:00,16.3,3.3,30.04,WNW,284,7.0,7.0,56,0.00,,,0.00,Wunderground v.1.15,2013-01-24 17:40:00,
2013-01-24 12:50:00,16.3,3.3,30.04,WNW,293,7.0,7.0,56,0.00,,,0.00,Wunderground v.1.15,2013-01-24 17:50:00,
2013-01-24 13:00:00,16.9,4.3,30.04,NW,312,5.0,9.0,57,0.00,,,0.00,Wunderground v.1.15,2013-01-24 18:00:00,
2013-01-24 13:10:00,16.6,2.8,30.04,SSE,165,6.0,6.0,54,0.00,,,0.00,Wunderground v.1.15,2013-01-24 18:10:00,
2013-01-24 13:20:00,16.9,2.7,30.04,NNW,329,6.0,6.0,53,0.00,,,0.00,Wunderground v.1.15,2013-01-24 18:20:00,
2013-01-24 13:30:00,16.8,2.6,30.04,WNW,283,6.0,7.0,53,0.00,,,0.00,Wunderground v.1.15,2013-01-24 18:30:00,
2013-01-24 13:40:00,17.0,3.2,30.03,NW,311,6.0,6.0,54,0.00,,,0.00,Wunderground v.1.15,2013-01-24 18:40:00,
2013-01-24 13:50:00,17.3,3.5,30.04,WNW,286,6.0,7.0,54,0.00,,,0.00,Wunderground v.1.15,2013-01-24 18:50:00,
2013-01-24 14:00:00,17.5,2.8,30.04,West,259,6.0,6.0,52,0.00,,,0.00,Wunderground v.1.15,2013-01-24 19:00:00,
2013-01-24 14:10:00,17.8,2.7,30.04,NNW,329,5.0,17.0,51,0.00,,,0.00,Wunderground v.1.15,2013-01-24 19:10:00,
2013-01-24 14:20:00,17.9,1.9,30.05,WSW,256,6.0,6.0,49,0.00,,,0.00,Wunderground v.1.15,2013-01-24 19:20:00,
2013-01-24 14:30:00,18.3,2.7,30.05,WNW,285,4.0,5.0,50,0.00,,,0.00,Wunderground v.1.15,2013-01-24 19:30:00,
2013-01-24 14:40:00,18.4,2.0,30.05,NW,304,6.0,6.0,48,0.00,,,0.00,Wunderground v.1.15,2013-01-24 19:40:00,
2013-01-24 14:50:00,18.3,1.4,30.05,NW,318,6.0,6.0,47,0.00,,,0.00,Wunderground v.1.15,2013-01-24 19:50:00,
2013-01-24 15:00:00,18.7,1.3,30.04,West,276,6.0,6.0,46,0.00,,,0.00,Wunderground v.1.15,2013-01-24 20:00:00,
2013-01-24 15:10:00,18.8,0.5,30.05,WSW,255,6.0,8.0,44,0.00,,,0.00,Wunderground v.1.15,2013-01-24 20:10:00,
2013-01-24 15:20:00,18.6,-0.7,30.05,NW,309,6.0,6.0,42,0.00,,,0.00,Wunderground v.1.15,2013-01-24 20:20:00,
2013-01-24 15:30:00,18.4,0.1,30.05,WSW,256,5.0,5.0,44,0.00,,,0.00,Wunderground v.1.15,2013-01-24 20:30:00,
2013-01-24 15:40:00,18.5,0.7,30.05,WNW,290,4.0,4.0,45,0.00,,,0.00,Wunderground v.1.15,2013-01-24 20:40:00,
2013-01-24 15:50:00,18.4,0.6,30.06,WNW,295,5.0,6.0,45,0.00,,,0.00,Wunderground v.1.15,2013-01-24 20:50:00,
2013-01-24 16:00:00,18.4,0.1,30.06,West,277,4.0,6.0,44,0.00,,,0.00,Wunderground v.1.15,2013-01-24 21:00:00,
2013-01-24 16:10:00,18.4,0.1,30.06,SW,233,3.0,3.0,44,0.00,,,0.00,Wunderground v.1.15,2013-01-24 21:10:00,
2013-01-24 16:20:00,18.3,-0.5,30.07,WSW,252,4.0,4.0,43,0.00,,,0.00,Wunderground v.1.15,2013-01-24 21:20:00,
2013-01-24 16:30:00,18.3,-0.5,30.08,WNW,284,4.0,4.0,43,0.00,,,0.00,Wunderground v.1.15,2013-01-24 21:30:00,
2013-01-24 16:40:00,17.9,-1.4,30.08,West,276,3.0,3.0,42,0.00,,,0.00,Wunderground v.1.15,2013-01-24 21:40:00,
2013-01-24 16:50:00,17.9,-1.4,30.08,West,266,4.0,5.0,42,0.00,,,0.00,Wunderground v.1.15,2013-01-24 21:50:00,
2013-01-24 17:00:00,18.0,-1.3,30.08,North,357,4.0,4.0,42,0.00,,,0.00,Wunderground v.1.15,2013-01-24 22:00:00,
2013-01-24 17:10:00,17.9,-1.9,30.09,WNW,294,3.0,4.0,41,0.00,,,0.00,Wunderground v.1.15,2013-01-24 22:10:00,
2013-01-24 17:20:00,18.2,-1.6,30.08,NNE,22,4.0,6.0,41,0.00,,,0.00,Wunderground v.1.15,2013-01-24 22:20:00,
2013-01-24 17:30:00,18.5,-0.8,30.09,WNW,290,4.0,5.0,42,0.00,,,0.00,Wunderground v.1.15,2013-01-24 22:30:00,
2013-01-24 17:40:00,18.2,-1.6,30.10,WNW,288,4.0,4.0,41,0.00,,,0.00,Wunderground v.1.15,2013-01-24 22:40:00,
2013-01-24 17:50:00,17.7,-2.1,30.10,WNW,286,3.0,3.0,41,0.00,,,0.00,Wunderground v.1.15,2013-01-24 22:50:00,
2013-01-24 18:00:00,17.7,-2.1,30.10,WNW,284,4.0,5.0,41,0.00,,,0.00,Wunderground v.1.15,2013-01-24 23:00:00,
2013-01-24 18:10:00,17.9,-2.9,30.11,WNW,290,5.0,5.0,39,0.00,,,0.00,Wunderground v.1.15,2013-01-24 23:10:00,
2013-01-24 18:20:00,18.1,-2.2,30.10,WSW,245,4.0,6.0,40,0.00,,,0.00,Wunderground v.1.15,2013-01-24 23:20:00,
2013-01-24 18:30:00,18.4,-3.0,30.11,West,266,5.0,5.0,38,0.00,,,0.00,Wunderground v.1.15,2013-01-24 23:30:00,
2013-01-24 18:40:00,18.5,-2.4,30.11,West,274,4.0,5.0,39,0.00,,,0.00,Wunderground v.1.15,2013-01-24 23:40:00,
2013-01-24 18:50:00,17.5,-2.8,30.11,WNW,303,4.0,7.0,40,0.00,,,0.00,Wunderground v.1.15,2013-01-24 23:50:00,
2013-01-24 19:00:00,16.8,-2.4,30.12,WNW,282,4.0,4.0,42,0.00,,,0.00,Wunderground v.1.15,2013-01-25 00:00:00,
2013-01-24 19:10:00,16.6,-2.0,30.11,WNW,286,3.0,5.0,43,0.00,,,0.00,Wunderground v.1.15,2013-01-25 00:10:00,
2013-01-24 19:20:00,16.9,-2.8,30.11,West,264,4.0,4.0,41,0.00,,,0.00,Wunderground v.1.15,2013-01-25 00:20:00,
2013-01-24 19:30:00,17.0,-2.7,30.11,NW,309,5.0,8.0,41,0.00,,,0.00,Wunderground v.1.15,2013-01-25 00:30:00,
2013-01-24 19:40:00,16.8,-2.4,30.12,West,271,4.0,4.0,42,0.00,,,0.00,Wunderground v.1.15,2013-01-25 00:40:00,
2013-01-24 19:50:00,16.8,-2.9,30.12,West,259,4.0,6.0,41,0.00,,,0.00,Wunderground v.1.15,2013-01-25 00:50:00,
2013-01-24 20:00:00,16.9,-3.3,30.12,WNW,302,5.0,5.0,40,0.00,,,0.00,Wunderground v.1.15,2013-01-25 01:00:00,
2013-01-24 20:10:00,16.8,-2.9,30.12,West,269,5.0,8.0,41,0.00,,,0.00,Wunderground v.1.15,2013-01-25 01:10:00,
2013-01-24 20:20:00,16.7,-2.5,30.13,West,264,4.0,4.0,42,0.00,,,0.00,Wunderground v.1.15,2013-01-25 01:20:00,
2013-01-24 20:30:00,16.6,-3.1,30.13,WNW,293,5.0,5.0,41,0.00,,,0.00,Wunderground v.1.15,2013-01-25 01:30:00,
2013-01-24 20:40:00,16.6,-2.5,30.13,SSW,203,5.0,7.0,42,0.00,,,0.00,Wunderground v.1.15,2013-01-25 01:40:00,
2013-01-24 20:50:00,16.6,-3.1,30.14,West,262,5.0,5.0,41,0.00,,,0.00,Wunderground v.1.15,2013-01-25 01:50:00,
2013-01-24 21:00:00,16.4,-3.2,30.14,West,278,4.0,4.0,41,0.00,,,0.00,Wunderground v.1.15,2013-01-25 02:00:00,
2013-01-24 21:10:00,16.2,-3.4,30.15,West,264,4.0,4.0,41,0.00,,,0.00,Wunderground v.1.15,2013-01-25 02:10:00,
2013-01-24 21:20:00,15.9,-3.2,30.15,WNW,290,4.0,4.0,42,0.00,,,0.00,Wunderground v.1.15,2013-01-25 02:20:00,
2013-01-24 21:30:00,15.8,-3.3,30.16,West,278,5.0,5.0,42,0.00,,,0.00,Wunderground v.1.15,2013-01-25 02:30:00,
2013-01-24 21:40:00,15.7,-3.4,30.16,West,276,5.0,5.0,42,0.00,,,0.00,Wunderground v.1.15,2013-01-25 02:40:00,
2013-01-24 21:50:00,15.5,-3.5,30.16,WNW,282,4.0,6.0,42,0.00,,,0.00,Wunderground v.1.15,2013-01-25 02:50:00,
2013-01-24 22:00:00,15.4,-3.1,30.16,West,278,5.0,5.0,43,0.00,,,0.00,Wunderground v.1.15,2013-01-25 03:00:00,
2013-01-24 22:10:00,15.3,-3.2,30.17,WNW,285,5.0,5.0,43,0.00,,,0.00,Wunderground v.1.15,2013-01-25 03:10:00,
2013-01-24 22:20:00,15.1,-2.9,30.17,West,278,4.0,4.0,44,0.00,,,0.00,Wunderground v.1.15,2013-01-25 03:20:00,
2013-01-24 22:30:00,14.9,-2.6,30.17,WNW,295,4.0,5.0,45,0.00,,,0.00,Wunderground v.1.15,2013-01-25 03:30:00,
2013-01-24 22:40:00,14.8,-2.7,30.17,WNW,298,4.0,7.0,45,0.00,,,0.00,Wunderground v.1.15,2013-01-25 03:40:00,
2013-01-24 22:50:00,14.6,-2.5,30.17,WSW,255,4.0,4.0,46,0.00,,,0.00,Wunderground v.1.15,2013-01-25 03:50:00,
2013-01-24 23:00:00,14.4,-2.6,30.17,WNW,284,3.0,4.0,46,0.00,,,0.00,Wunderground v.1.15,2013-01-25 04:00:00,
2013-01-24 23:10:00,14.3,-2.3,30.17,WNW,287,3.0,3.0,47,0.00,,,0.00,Wunderground v.1.15,2013-01-25 04:10:00,
2013-01-24 23:20:00,14.1,-2.5,30.18,West,273,3.0,6.0,47,0.00,,,0.00,Wunderground v.1.15,2013-01-25 04:20:00,
2013-01-24 23:30:00,14.1,-2.0,30.19,West,276,4.0,4.0,48,0.00,,,0.00,Wunderground v.1.15,2013-01-25 04:30:00,
2013-01-24 23:40:00,13.9,-2.2,30.19,WNW,285,4.0,4.0,48,0.00,,,0.00,Wunderground v.1.15,2013-01-25 04:40:00,
2013-01-24 23:50:00,14.0,-1.7,30.19,West,276,4.0,5.0,49,0.00,,,0.00,Wunderground v.1.15,2013-01-25 04:50:00,